Miscellaneous Local Product
Issued by NWS Hastings, NE

Home | Current Version | Previous Version | Text Only | Print | Product List | Glossary Off
Versions: 1 2 3 4 5 6 7 8 9 10 11 12 13 14 15 16 17 18 19 20 21 22 23 24 25 26 27 28 29 30 31 32 33 34 35 36 37 38 39 40 41 42 43 44 45 46 47 48 49 50

000
AXUS43 KGID 230202
MISGRI

GID CWA HOURLY WEATHER ROUNDUP
NATIONAL WEATHER SERVICE HASTINGS NE
900 PM CDT FRI SEP 22 2017

NOTE: "FAIR" INDICATES FEW OR NO CLOUDS BELOW 12,000 FEET WITH NO
SIGNIFICANT WEATHER AND/OR OBSTRUCTIONS TO VISIBILITY.

...SOUTH CENTRAL NEBRASKA...

CITY           SKY/WX    TMP DP  RH WIND       PRES   REMARKS
GRAND ISLAND   PTCLDY    83  65  54 S20G32    29.77S
HASTINGS       PTCLDY    84  62  47 S16       29.80S
KEARNEY        MOCLDY    84  63  49 S22G29    29.77R
ORD            CLEAR     83  57  41 SE13      29.74R
YORK           CLEAR     82  64  54 S14       29.83R
AURORA         PTCLDY    83  63  51 S14G24    29.81R
LEXINGTON      MOCLDY    84  57  39 SE15      29.76R
HOLDREGE       PTCLDY    83  57  41 SE16G23   29.78R
HEBRON         PTCLDY    84  65  53 S8        29.84R

...NEBRASKA PANHANDLE...

CITY           SKY/WX    TMP DP  RH WIND       PRES   REMARKS
CHADRON        CLOUDY    57  37  47 NE18G25   29.91R
ALLIANCE       CLOUDY    58  42  55 NE17G26   29.87R
SCOTTSBLUFF    PTCLDY    61  43  51 NE8       29.86R
SIDNEY         CLEAR     62  45  53 NE17      29.84F

...WESTERN AND NORTH CENTRAL NEBRASKA...

CITY           SKY/WX    TMP DP  RH WIND       PRES   REMARKS
VALENTINE      CLOUDY    60  44  55 N10       29.89R
AINSWORTH      CLOUDY    60  52  73 N14       29.87R
ONEILL         CLOUDY    65  60  83 NW3       29.83R
BROKEN BOW     CLOUDY    74  57  55 N18G28    29.76R
IMPERIAL       PTCLDY    70  42  36 CALM      29.74R
NORTH PLATTE   CLOUDY    69  53  56 NE20G33   29.76R
MCCOOK         CLOUDY    86  56  35 S21G28    29.74R

...EASTERN NEBRASKA...

CITY           SKY/WX    TMP DP  RH WIND       PRES   REMARKS
NORFOLK        MOCLDY    82  64  54 S18G26    29.79R
SO SIOUX CITY  CLOUDY    83  69  62 S16G23    29.79R
TEKAMAH        MOCLDY    82  68  62 SE10      29.83R
COLUMBUS       CLOUDY    83  66  56 SE13      29.80R
ALBION         CLOUDY    83  65  55 S13G20    29.78R
OMAHA EPPLEY   PTCLDY    85  67  54 S17G25    29.86R
OFFUTT AFB     CLEAR     82  66  59 SE15      29.87R
MILLARD        PTCLDY    84  70  61 SE12      29.86R
LINCOLN        PTCLDY    84  67  56 SE20G25   29.84R
NEBRASKA CITY  PTCLDY    81  68  65 S14G21    29.89R
BEATRICE       CLEAR     84  67  57 SE12      29.86R
FALLS CITY     CLEAR     79  68  69 SE8       29.89R

...NORTHERN KANSAS...

CITY           SKY/WX    TMP DP  RH WIND       PRES   REMARKS
GOODLAND       PTCLDY    81  55  40 S20       29.78R
HILL CITY      MOCLDY    86  59  39 S17       29.80R
NORTON         CLEAR     84  48  28 SE17G26   29.78R
PHILLIPSBURG   CLEAR     86  59  39 SE15G23   29.79R
SMITH CENTER   CLEAR     82  61  47 SE17G25   29.81R
HAYS           CLEAR     84  63  49 S20       29.82R
RUSSELL        CLEAR     83  63  50 S18       29.83R
CONCORDIA      CLEAR     81  66  60 SE13      29.85R
SALINA         CLEAR     86  66  51 SE13      29.85R
TOPEKA         CLEAR     80  70  71 SE10      29.90S



USA.gov is the U.S. government's official web portal to all federal, state and local government web resources and services.